RYR307 ESSA-EDDH

Flight info

Callsign RYR307
Flight time N/A
Altitude 36000
Route NOSLI N850 ABAMA GIMRU T503 MICOS N850 BOGMU BOGM3P
Aircraft B738/M-VGDW/C

Departure

Time N/A
Airport Stockholm-Arlanda Airport (ESSA)

Arrival

Time 2026-04-26 18:19
Airport Hamburg Helmut Schmidt Airport (EDDH)
Time Latitude Longitude Altitude Speed Heading
2026-04-26 18:18 53.62454 9.97813 61 ft 0 kts 142°
2026-04-26 18:19 53.62443 9.97828 61 ft 7 kts 136°
2026-04-26 18:19 53.62439 9.98002 61 ft 18 kts 78°
2026-04-26 18:19 53.62456 9.98155 61 ft 16 kts 79°
2026-04-26 18:20 53.62480 9.98372 61 ft 19 kts 79°
2026-04-26 18:20 53.62505 9.98584 61 ft 18 kts 79°
2026-04-26 18:20 53.62529 9.98795 61 ft 18 kts 79°
2026-04-26 18:20 53.62537 9.98864 61 ft 17 kts 79°
2026-04-26 18:21 53.62575 9.99202 61 ft 17 kts 78°
2026-04-26 18:21 53.62597 9.99399 61 ft 16 kts 79°
2026-04-26 18:21 53.62618 9.99578 61 ft 15 kts 79°
2026-04-26 18:21 53.62634 9.99724 61 ft 10 kts 79°
2026-04-26 18:22 53.62663 9.99826 61 ft 9 kts 42°
2026-04-26 18:22 53.62730 9.99893 61 ft 11 kts 29°
2026-04-26 18:22 53.62796 9.99955 61 ft 10 kts 29°
2026-04-26 18:22 53.62848 10.00006 61 ft 0 kts 33°
2026-04-26 18:23 53.62849 10.00007 61 ft 0 kts 33°
2026-04-26 18:23 53.62855 10.00019 61 ft 1 kts 70°
2026-04-26 18:23 53.62822 10.00089 61 ft 11 kts 148°
2026-04-26 18:24 53.62756 10.00147 61 ft 10 kts 153°
2026-04-26 18:24 53.62710 10.00200 61 ft 4 kts 101°
2026-04-26 18:24 53.62719 10.00245 61 ft 3 kts 65°
2026-04-26 18:24 53.62730 10.00283 61 ft 3 kts 62°
2026-04-26 18:25 53.62737 10.00305 61 ft 0 kts 62°